FW0472 Weather Reports


time (UTC)temp
C
wind
direction
speed
KPH
gust
KPH
rain 1hr
cm
rain 24hr
cm
rain mn
cm
humidity
%
barometer
mb
20260510193844 18 306 0.0 1.6 0.00 0.23 0.23 65 1039.1
20260510193340 18 340 1.6 3.2 0.00 0.23 0.23 64 1039.0
20260510192836 17 319 1.6 1.6 0.00 0.23 0.23 68 1038.8
20260510192331 18 302 4.8 8.0 0.00 0.23 0.23 69 1039.4
20260510191827 17 308 3.2 4.8 0.00 0.23 0.23 68 1039.0
20260510191323 16 321 0.0 1.6 0.00 0.23 0.23 70 1039.1
20260510190822 16 321 0.0 0.0 0.00 0.23 0.23 76 1039.0
20260510190319 16 296 1.6 1.6 0.00 0.23 0.23 74 1039.0
20260510185815 16 323 0.0 1.6 0.00 0.23 0.23 76 1039.2
20260510185313 16 326 0.0 1.6 0.00 0.23 0.23 78 1039.1
20260510184810 16 328 0.0 0.0 0.00 0.23 0.23 77 1039.0
20260510184306 15 326 0.0 0.0 0.00 0.23 0.23 79 1039.0
20260510183801 15 321 0.0 1.6 0.00 0.23 0.23 78 1039.0
20260510183256 16 337 0.0 0.0 0.00 0.23 0.23 77 1039.0
20260510182753 15 324 0.0 0.0 0.00 0.23 0.23 82 1039.2
20260510182249 15 319 0.0 1.6 0.00 0.23 0.23 81 1039.0
20260510181746 15 323 0.0 1.6 0.00 0.23 0.23 80 1038.8
20260510181242 15 311 0.0 1.6 0.00 0.23 0.23 83 1039.1
20260510180738 15 319 0.0 1.6 0.00 0.23 0.23 85 1039.3
20260510180236 15 324 0.0 0.0 0.00 0.23 0.23 82 1039.2
20260510175733 16 305 0.0 1.6 0.00 0.23 0.23 83 1039.1
20260510175228 16 331 1.6 3.2 0.00 0.23 0.23 84 1039.3
20260510174726 16 319 0.0 1.6 0.00 0.23 0.23 83 1039.0
20260510174223 15 280 4.8 4.8 0.00 0.23 0.23 87 1039.2
20260510173719 15 297 1.6 3.2 0.00 0.23 0.23 87 1039.1
20260510173215 15 306 0.0 1.6 0.00 0.23 0.23 91 1039.1
20260510172710 15 287 1.6 3.2 0.00 0.23 0.23 90 1039.1
20260510172207 14 327 0.0 0.0 0.00 0.23 0.23 92 1038.9
20260510171703 13 352 1.6 3.2 0.00 0.23 0.23 93 1039.2
20260510171201 13 321 0.0 1.6 0.13 0.23 0.23 97 1039.3
20260510170657 13 322 0.0 0.0 0.30 0.23 0.23 96 1039.4
20260510170154 13 332 0.0 0.0 0.30 0.20 0.20 95 1039.4
20260510165650 13 330 0.0 0.0 0.13 0.18 0.18 94 1039.5
20260510165145 13 1 0.0 0.0 0.00 0.15 0.15 94 1039.3
20260510164644 13 333 1.6 1.6 0.00 0.15 0.15 94 1039.2
20260510164141 13 321 0.0 0.0 0.00 0.15 0.15 94 1039.3
20260510163636 13 336 0.0 0.0 0.00 0.15 0.15 95 1039.2
20260510163131 12 351 0.0 0.0 0.00 0.15 0.15 96 1039.1
20260510162626 12 344 0.0 0.0 0.18 0.15 0.15 96 1039.1
20260510162123 12 6 0.0 0.0 0.18 0.15 0.15 96 1039.1
20260510161618 12 331 0.0 0.0 0.00 0.13 0.13 96 1039.1
20260510161115 12 335 0.0 0.0 0.00 0.13 0.13 95 1039.1
20260510160613 12 347 0.0 0.0 0.00 0.13 0.13 95 1039.2
20260510160112 12 331 0.0 0.0 0.00 0.13 0.13 95 1039.0
20260510155609 12 331 0.0 0.0 0.00 0.13 0.13 94 1039.0
20260510155106 12 347 0.0 0.0 0.30 0.13 0.13 94 1038.9
20260510154601 12 346 0.0 0.0 0.71 0.13 0.13 93 1039.2
20260510154056 13 328 0.0 1.6 0.43 0.08 0.08 91 1039.3
20260510153551 13 314 1.6 3.2 0.00 0.00 0.00 87 1039.5
20260510153049 13 276 1.6 1.6 0.00 0.00 0.00 85 1039.2
20260510152545 13 328 0.0 0.0 0.00 0.00 0.00 84 1038.9
20260510152042 13 302 3.2 4.8 0.00 0.00 0.00 83 1038.9
20260510151538 13 316 0.0 1.6 0.00 0.00 0.00 83 1038.6
20260510151036 13 24 3.2 4.8 0.00 0.00 0.00 82 1038.5
20260510150531 13 164 4.8 8.0 0.00 0.00 0.00 82 1038.3
20260510150027 13 334 0.0 0.0 0.00 0.00 0.00 86 1038.2
20260510145524 13 18 1.6 1.6 0.00 0.00 0.00 84 1038.2
20260510145020 13 335 0.0 1.6 0.00 0.00 0.00 83 1038.4
20260510144517 13 18 1.6 1.6 0.00 0.00 0.00 83 1038.4
20260510144013 13 315 0.0 1.6 0.00 0.00 0.00 84 1038.5
20260510143508 13 336 0.0 1.6 0.00 0.00 0.00 84 1038.5
20260510143005 13 318 1.6 1.6 0.00 0.00 0.00 84 1038.5
20260510142502 13 327 0.0 0.0 0.00 0.00 0.00 85 1038.5
20260510141958 13 349 1.6 1.6 0.00 0.00 0.00 85 1038.4
20260510141455 12 1 1.6 1.6 0.00 0.00 0.00 86 1038.7
20260510140953 12 150 3.2 3.2 0.00 0.00 0.00 85 1038.7
20260510140449 12 79 3.2 3.2 0.00 0.00 0.00 86 1038.7
20260510135948 12 125 3.2 3.2 0.00 0.00 0.00 87 1038.8
20260510135444 12 81 3.2 3.2 0.00 0.00 0.00 87 1038.7
20260510134941 12 331 1.6 1.6 0.00 0.00 0.00 87 1039.0
20260510134437 12 287 1.6 3.2 0.00 0.00 0.00 89 1038.8
20260510133934 12 324 0.0 1.6 0.00 0.00 0.00 90 1038.8
20260510133431 11 6 0.0 1.6 0.00 0.00 0.00 90 1038.8
20260510132926 11 184 4.8 4.8 0.00 0.00 0.00 90 1038.8
20260510132424 11 12 1.6 1.6 0.00 0.00 0.00 90 1038.9
20260510131921 11 339 0.0 0.0 0.00 0.00 0.00 91 1038.6
20260510131418 11 243 1.6 3.2 0.00 0.00 0.00 91 1038.6
20260510130914 11 42 1.6 3.2 0.00 0.00 0.00 92 1038.6
20260510130412 11 145 3.2 3.2 0.00 0.00 0.00 92 1038.7
20260510125909 11 109 3.2 3.2 0.00 0.00 0.00 93 1038.6
20260510125405 11 7 0.0 1.6 0.00 0.00 0.00 95 1038.5
20260510124902 11 344 0.0 0.0 0.00 0.00 0.00 94 1038.7
20260510124358 11 28 1.6 1.6 0.00 0.00 0.00 94 1038.9
20260510123854 10 329 0.0 0.0 0.00 0.00 0.00 94 1038.9
20260510123350 10 340 0.0 0.0 0.00 0.00 0.00 95 1038.7
20260510122846 10 308 0.0 0.0 0.00 0.00 0.00 95 1038.8
20260510122342 10 351 0.0 1.6 0.00 0.00 0.00 95 1038.9
20260510121839 10 1 0.0 0.0 0.00 0.00 0.00 95 1038.9
20260510121337 10 154 0.0 0.0 0.00 0.00 0.00 96 1038.9
20260510120833 10 328 0.0 0.0 0.00 0.00 0.00 96 1039.0
20260510120331 10 328 0.0 0.0 0.00 0.00 0.00 96 1038.9
20260510115826 10 326 0.0 0.0 0.00 0.00 0.00 97 1038.8
20260510115324 10 328 0.0 0.0 0.00 0.00 0.00 97 1038.6
20260510114819 10 334 0.0 0.0 0.00 0.00 0.00 97 1038.4
20260510114317 9 331 0.0 0.0 0.00 0.00 0.00 97 1038.3
20260510113811 9 8 0.0 0.0 0.00 0.00 0.00 97 1038.3
20260510113309 9 1 0.0 0.0 0.00 0.00 0.00 97 1038.5
20260510112805 9 337 0.0 0.0 0.00 0.00 0.00 97 1038.5
20260510112305 8 338 0.0 0.0 0.00 0.00 0.00 97 1038.4
20260510111758 8 336 0.0 0.0 0.00 0.00 0.00 97 1038.3
20260510111255 8 340 0.0 0.0 0.00 0.00 0.00 97 1038.0
20260510110754 8 331 0.0 0.0 0.00 0.00 0.00 97 1038.4
20260510110253 8 331 0.0 0.0 0.00 0.00 0.00 97 1038.4
20260510105752 8 1 0.0 0.0 0.00 0.00 0.00 97 1038.4
20260510105247 8 352 0.0 0.0 0.00 0.00 0.00 97 1038.2
20260510104744 8 337 0.0 0.0 0.00 0.00 0.00 97 1037.9
20260510104242 8 345 0.0 0.0 0.00 0.00 0.00 97 1038.1
20260510103737 8 346 0.0 0.0 0.00 0.00 0.00 97 1038.0
20260510103235 8 345 0.0 0.0 0.00 0.00 0.00 97 1037.9
20260510102734 8 344 0.0 0.0 0.00 0.00 0.00 97 1037.9
20260510102230 8 344 0.0 0.0 0.00 0.00 0.00 97 1037.6
20260510101728 8 346 0.0 0.0 0.00 0.00 0.00 97 1037.5
20260510101226 8 347 0.0 0.0 0.00 0.00 0.00 97 1037.3
20260510100722 8 349 0.0 0.0 0.00 0.00 0.00 97 1037.1
20260510100220 8 332 0.0 0.0 0.00 0.00 0.00 97 1037.0
20260510095715 8 328 0.0 0.0 0.00 0.00 0.00 97 1037.0
20260510095211 8 328 0.0 0.0 0.00 0.00 0.00 97 1037.2
20260510094709 8 328 0.0 0.0 0.00 0.00 0.00 97 1036.8
20260510094206 8 332 0.0 1.6 0.00 0.00 0.00 97 1036.8
20260510093701 8 24 1.6 1.6 0.00 0.00 0.00 97 1037.0
20260510093159 8 329 0.0 0.0 0.00 0.00 0.00 97 1037.0
20260510092655 8 339 0.0 0.0 0.00 0.00 0.00 97 1036.7
20260510092151 8 351 0.0 0.0 0.00 0.00 0.00 97 1036.6
20260510091647 8 7 1.6 1.6 0.00 0.00 0.00 97 1036.4
20260510091143 8 338 0.0 0.0 0.00 0.00 0.00 97 1036.5
20260510090640 8 341 0.0 0.0 0.00 0.00 0.00 97 1036.5
20260510090136 8 38 1.6 1.6 0.00 0.00 0.00 97 1036.6
20260510085632 8 334 0.0 0.0 0.00 0.00 0.00 97 1036.9
20260510085127 8 333 0.0 0.0 0.00 0.00 0.00 97 1036.9
20260510084624 8 327 0.0 0.0 0.00 0.00 0.00 97 1036.9
20260510084121 8 351 0.0 0.0 0.00 0.00 0.00 97 1037.1
20260510083617 8 328 0.0 0.0 0.00 0.00 0.00 96 1037.3
20260510083113 8 328 0.0 0.0 0.00 0.00 0.00 96 1037.2
20260510082610 8 317 0.0 0.0 0.00 0.00 0.00 96 1037.2
20260510082106 8 341 0.0 0.0 0.00 0.00 0.00 96 1037.3
20260510081600 8 342 0.0 0.0 0.00 0.00 0.00 96 1037.7
20260510081056 8 326 0.0 0.0 0.00 0.00 0.00 96 1037.5
20260510080556 8 333 0.0 0.0 0.00 0.00 0.00 96 1037.4
20260510080053 8 7 0.0 1.6 0.00 0.00 0.00 96 1037.6
20260510075550 8 343 0.0 0.0 0.00 0.00 0.00 96 1037.4
20260510075047 8 354 0.0 0.0 0.00 0.00 0.00 96 1037.3
20260510074544 8 342 0.0 0.0 0.00 0.00 0.00 96 1037.4
20260510074039 8 6 0.0 1.6 0.00 0.00 0.00 96 1037.1
20260510073536 8 328 0.0 0.0 0.00 0.00 0.00 96 1037.4
20260510073033 8 357 0.0 1.6 0.00 0.00 0.00 96 1037.1
20260510072530 8 332 0.0 0.0 0.00 0.00 0.00 96 1037.1
20260510072025 8 254 1.6 3.2 0.00 0.00 0.00 97 1037.2
20260510071521 8 337 0.0 0.0 0.00 0.00 0.00 97 1037.3
20260510071020 8 327 0.0 0.0 0.00 0.00 0.00 97 1037.3
20260510070517 8 335 0.0 0.0 0.00 0.00 0.00 97 1037.1
20260510070013 8 359 0.0 0.0 0.00 0.00 0.00 97 1037.2
20260510065510 8 344 0.0 0.0 0.00 0.00 0.00 96 1037.7
20260510065006 8 324 0.0 0.0 0.00 0.00 0.00 96 1037.7
20260510064503 8 338 0.0 0.0 0.00 0.00 0.00 96 1037.4
20260510063959 8 4 0.0 0.0 0.00 0.00 0.00 96 1037.3
20260510063456 8 5 0.0 0.0 0.00 0.00 0.00 97 1037.1
20260510062954 8 333 0.0 0.0 0.00 0.00 0.00 97 1037.2
20260510062449 8 344 0.0 0.0 0.00 0.00 0.00 97 1037.2
20260510061944 8 332 0.0 0.0 0.00 0.00 0.00 96 1037.1
20260510061441 8 332 0.0 0.0 0.00 0.00 0.00 97 1037.1
20260510060937 8 205 1.6 3.2 0.00 0.00 0.00 97 1037.2
20260510060434 8 342 0.0 0.0 0.00 0.00 0.00 97 1037.3
20260510055931 8 356 0.0 0.0 0.00 0.00 0.00 97 1037.4
20260510055426 8 0 0.0 0.0 0.00 0.00 0.00 97 1037.4
20260510054919 8 333 0.0 0.0 0.00 0.00 0.00 97 1037.4
20260510054414 8 335 0.0 0.0 0.00 0.00 0.00 97 1037.6
20260510053909 8 326 0.0 0.0 0.00 0.00 0.00 97 1037.6
20260510053405 8 326 0.0 0.0 0.00 0.00 0.00 97 1037.7
20260510052901 8 334 0.0 0.0 0.00 0.00 0.00 97 1037.6
20260510052357 8 344 0.0 0.0 0.00 0.00 0.00 97 1037.6
20260510051854 8 14 1.6 1.6 0.00 0.00 0.00 97 1037.4
20260510051350 8 353 0.0 0.0 0.00 0.00 0.00 97 1037.4
20260510050847 8 0 0.0 0.0 0.00 0.00 0.00 97 1037.6
20260510050344 8 336 0.0 0.0 0.00 0.00 0.00 97 1037.7
20260510045841 8 350 0.0 0.0 0.00 0.00 0.00 97 1037.9
20260510045338 8 335 0.0 1.6 0.00 0.00 0.00 97 1037.9
20260510044835 8 345 0.0 0.0 0.00 0.00 0.00 97 1037.8
20260510044332 8 338 0.0 0.0 0.00 0.00 0.00 97 1037.7
20260510043828 8 353 0.0 0.0 0.00 0.00 0.00 97 1037.6
20260510043324 7 345 0.0 0.0 0.00 0.00 0.00 97 1037.5
20260510042822 7 357 0.0 0.0 0.00 0.00 0.00 96 1037.6
20260510042318 7 342 0.0 1.6 0.00 0.00 0.00 97 1037.7
20260510041814 7 335 0.0 0.0 0.00 0.00 0.00 97 1037.8
20260510041312 7 341 0.0 0.0 0.00 0.00 0.00 97 1037.8
20260510040809 7 334 0.0 0.0 0.00 0.00 0.00 97 1037.8
20260510040305 7 340 0.0 0.0 0.00 0.00 0.00 97 1037.9
20260510035801 7 331 0.0 0.0 0.00 0.43 0.43 97 1037.9
20260510035257 7 341 0.0 0.0 0.00 0.43 0.43 97 1037.8
20260510034753 7 358 0.0 0.0 0.00 0.43 0.43 97 1037.9
20260510034250 7 27 0.0 0.0 0.00 0.43 0.43 97 1037.8
20260510033747 7 3 0.0 0.0 0.00 0.43 0.43 98 1037.7
20260510033244 7 49 1.6 1.6 0.00 0.43 0.43 97 1037.7
20260510032740 7 19 0.0 0.0 0.00 0.43 0.43 97 1037.9
20260510032236 7 73 3.2 3.2 0.00 0.43 0.43 97 1037.8
20260510031732 7 40 1.6 3.2 0.00 0.43 0.43 97 1037.8
20260510031228 7 168 1.6 3.2 0.00 0.43 0.43 98 1038.0
20260510030727 7 16 3.2 3.2 0.00 0.43 0.43 97 1037.9
20260510030225 7 38 1.6 1.6 0.00 0.43 0.43 97 1038.0
20260510025722 7 8 1.6 1.6 0.00 0.43 0.43 98 1038.3
20260510025220 7 315 1.6 1.6 0.00 0.43 0.43 98 1038.0
20260510024716 7 65 1.6 3.2 0.00 0.43 0.43 98 1037.9
20260510024214 7 46 3.2 3.2 0.00 0.43 0.43 98 1038.0
20260510023708 7 358 0.0 1.6 0.00 0.43 0.43 97 1038.2
20260510023206 7 47 1.6 3.2 0.00 0.43 0.43 97 1038.3
20260510022701 7 29 1.6 1.6 0.00 0.43 0.43 97 1038.2
20260510022150 7 1 1.6 1.6 0.00 0.43 0.43 97 1038.3
20260510021646 7 29 1.6 3.2 0.00 0.43 0.43 97 1038.5
20260510021144 7 63 3.2 3.2 0.00 0.43 0.43 97 1038.8
20260510020638 7 50 1.6 3.2 0.00 0.43 0.43 97 1038.6
20260510020134 7 9 1.6 1.6 0.00 0.43 0.43 97 1038.7
20260510015630 7 340 1.6 1.6 0.00 0.43 0.43 97 1038.7
20260510015127 7 25 0.0 1.6 0.00 0.43 0.43 97 1038.7
20260510014622 7 89 1.6 3.2 0.00 0.43 0.43 96 1038.7
20260510014119 7 60 4.8 4.8 0.00 0.43 0.43 97 1038.6
20260510013614 7 33 3.2 3.2 0.00 0.43 0.43 97 1038.5
20260510013109 7 26 3.2 3.2 0.00 0.43 0.43 97 1038.4
20260510012608 7 1 1.6 1.6 0.00 0.43 0.43 97 1038.5
20260510012106 7 51 3.2 3.2 0.00 0.43 0.43 97 1038.5
20260510011604 7 32 1.6 3.2 0.00 0.43 0.43 96 1038.6
20260510011101 7 26 3.2 3.2 0.00 0.43 0.43 96 1038.3
20260510010558 7 64 3.2 3.2 0.00 0.43 0.43 96 1038.8
20260510010055 7 87 4.8 4.8 0.00 0.43 0.43 96 1038.7
20260510005550 7 326 1.6 1.6 0.00 0.43 0.43 96 1038.5
20260510005048 7 90 3.2 3.2 0.00 0.43 0.43 96 1038.8
20260510004545 7 56 3.2 3.2 0.00 0.43 0.43 96 1038.5
20260510004043 7 21 1.6 3.2 0.00 0.43 0.43 96 1038.6
20260510003540 7 343 0.0 1.6 0.00 0.43 0.43 96 1038.6
20260510003035 7 76 4.8 4.8 0.00 0.43 0.43 96 1038.4
20260510002531 7 18 3.2 4.8 0.00 0.43 0.43 96 1038.3
20260510002028 7 84 4.8 4.8 0.00 0.43 0.43 97 1038.3
20260510001525 7 355 0.0 1.6 0.00 0.43 0.43 96 1038.3
20260510001024 7 6 0.0 1.6 0.00 0.43 0.43 96 1038.2
20260510000518 7 1 0.0 0.0 0.00 0.43 0.43 96 1037.9
20260510000016 7 52 4.8 4.8 0.00 0.43 0.43 96 1038.0
20260509235512 7 80 3.2 4.8 0.00 0.43 0.43 96 1038.0
20260509235009 7 88 6.4 8.0 0.00 0.43 0.43 96 1038.0
20260509234505 7 77 3.2 3.2 0.00 0.43 0.43 97 1037.8
20260509234004 7 34 1.6 3.2 0.00 0.43 0.43 97 1037.9
20260509233500 7 46 1.6 3.2 0.00 0.43 0.43 97 1037.9
20260509232956 7 35 1.6 1.6 0.00 0.43 0.43 96 1037.9
20260509232455 7 4 1.6 1.6 0.00 0.43 0.43 96 1038.0
20260509231950 7 85 4.8 8.0 0.00 0.43 0.43 96 1037.8
20260509231447 7 59 1.6 3.2 0.00 0.43 0.43 97 1037.8
20260509230945 7 102 3.2 4.8 0.00 0.43 0.43 97 1037.8
20260509230441 7 104 4.8 4.8 0.00 0.43 0.43 96 1038.0
20260509225938 7 23 3.2 4.8 0.00 0.43 0.43 96 1037.9
20260509225434 7 94 6.4 8.0 0.00 0.43 0.43 96 1038.1
20260509224930 7 81 4.8 4.8 0.00 0.43 0.43 96 1038.0
20260509224425 7 75 4.8 4.8 0.00 0.43 0.43 96 1038.0
20260509223923 7 20 3.2 3.2 0.00 0.43 0.43 97 1038.0
20260509223419 7 95 3.2 3.2 0.00 0.43 0.43 97 1038.3
20260509222917 7 44 3.2 3.2 0.00 0.43 0.43 97 1038.1
20260509222412 7 33 1.6 1.6 0.00 0.43 0.43 97 1038.3
20260509221908 7 72 3.2 3.2 0.00 0.43 0.43 97 1038.3
20260509221405 7 48 3.2 3.2 0.00 0.43 0.43 97 1038.3
20260509220901 7 85 3.2 3.2 0.00 0.43 0.43 97 1038.3
20260509220357 7 61 1.6 1.6 0.00 0.43 0.43 97 1038.4
20260509215852 7 7 0.0 1.6 0.00 0.43 0.43 97 1038.3
20260509215349 7 38 1.6 1.6 0.00 0.43 0.43 97 1038.2
20260509214846 7 343 1.6 3.2 0.00 0.43 0.43 97 1038.5
20260509214344 7 350 0.0 0.0 0.00 0.43 0.43 98 1038.5
20260509213840 7 329 0.0 1.6 0.00 0.43 0.43 97 1038.5
20260509213336 7 358 0.0 0.0 0.00 0.43 0.43 97 1038.8
20260509212833 7 276 1.6 3.2 0.00 0.43 0.43 98 1038.5
20260509212331 7 79 4.8 4.8 0.00 0.43 0.43 98 1038.8
20260509211827 7 40 1.6 1.6 0.00 0.43 0.43 98 1038.6
20260509211323 7 29 1.6 1.6 0.00 0.43 0.43 98 1038.7
20260509210820 7 40 1.6 1.6 0.00 0.43 0.43 98 1038.7
20260509210317 7 64 3.2 3.2 0.00 0.43 0.43 98 1038.5
20260509205818 7 359 1.6 1.6 0.00 0.43 0.43 98 1038.6
20260509205312 7 30 1.6 1.6 0.00 0.43 0.43 98 1038.6
20260509204808 7 350 1.6 1.6 0.00 0.43 0.43 98 1038.6
20260509204304 7 354 3.2 3.2 0.00 0.43 0.43 98 1038.6
20260509203800 7 5 1.6 1.6 0.00 0.43 0.43 98 1038.6
20260509203258 7 29 1.6 3.2 0.00 0.43 0.43 98 1038.6
20260509202754 7 79 3.2 3.2 0.00 0.43 0.43 98 1038.5
20260509202250 7 7 0.0 1.6 0.00 0.43 0.43 98 1038.6
20260509201750 7 14 1.6 1.6 0.00 0.43 0.43 98 1038.9
20260509201247 7 24 0.0 1.6 0.00 0.43 0.43 98 1038.7
20260509200743 7 10 0.0 0.0 0.00 0.43 0.43 98 1038.7
20260509200238 7 354 1.6 1.6 0.00 0.43 0.43 98 1038.7
20260509195734 7 21 1.6 3.2 0.00 0.43 0.43 98 1038.7
20260509195230 7 17 1.6 1.6 0.00 0.43 0.43 98 1038.8
20260509194724 7 11 1.6 1.6 0.00 0.43 0.43 98 1038.6